EST,Max TemperatureF,Mean TemperatureF,Min TemperatureF,Max Dew PointF,MeanDew PointF,Min DewpointF,Max Humidity, Mean Humidity, Min Humidity, Max Sea Level PressureIn, Mean Sea Level PressureIn, Min Sea Level PressureIn, Max VisibilityMiles, Mean VisibilityMiles, Min VisibilityMiles, Max Wind SpeedMPH, Mean Wind SpeedMPH, Max Gust SpeedMPH,PrecipitationIn, CloudCover, Events, WindDirDegrees
2013-2-1,18,11,3,9,0,-6,79,66,53,30.44,30.36,30.25,10,10,6,23,12,33,T,5,,263
2013-2-2,27,20,13,21,16,6,92,77,62,30.25,30.10,30.01,10,7,2,18,9,22,0.01,8,Snow,256
2013-2-3,24,16,8,17,12,4,88,78,68,30.11,30.05,30.00,10,7,2,23,6,31,T,7,Snow,274
2013-2-4,39,30,21,27,21,14,81,70,59,30.09,29.90,29.80,10,10,10,15,7,20,0.00,6,,352
2013-2-5,35,28,20,30,23,18,92,78,63,30.08,29.93,29.83,10,8,2,20,6,25,T,5,Snow,268
2013-2-6,37,32,27,25,22,19,78,67,56,30.27,30.21,30.07,10,9,7,13,6,16,0.00,4,,175
2013-2-7,52,41,29,41,32,25,92,71,50,30.17,29.97,29.83,10,7,4,18,8,24,0.10,3,Rain,146
2013-2-8,34,31,28,31,27,23,89,82,75,30.39,30.19,29.89,10,10,7,18,11,28,0.00,8,,337
2013-2-9,40,34,27,25,23,19,85,70,54,30.42,30.33,30.15,10,10,10,13,6,17,0.00,3,,149
2013-2-10,51,42,32,47,37,21,93,75,56,30.14,29.84,29.65,10,9,3,22,10,29,0.22,7,Rain,176
2013-2-11,51,40,29,46,27,22,83,70,56,30.07,29.86,29.63,10,10,8,35,18,46,0.00,5,,266
2013-2-12,33,28,23,25,23,20,88,80,72,30.15,30.08,29.97,10,10,7,17,6,22,0.00,5,,280
2013-2-13,47,35,22,30,25,21,96,71,45,29.96,29.85,29.77,10,8,4,15,4,20,0.00,0,,241
2013-2-14,44,38,31,33,29,27,89,76,62,30.01,29.86,29.78,10,10,9,23,9,31,0.00,6,,266
2013-2-15,33,28,22,28,23,13,92,70,47,30.20,30.11,30.00,10,8,0,18,6,23,0.03,7,Fog-Snow,328
2013-2-16,24,20,16,14,10,5,77,62,47,30.19,30.16,30.12,10,10,9,20,10,28,T,5,,321
2013-2-17,31,19,6,13,6,3,88,60,31,30.27,30.20,30.12,10,10,10,12,4,16,0.00,0,,187
2013-2-18,54,40,26,43,31,13,92,71,50,30.11,29.80,29.52,10,10,9,29,13,36,0.33,4,Rain,189
2013-2-19,42,30,18,36,16,9,100,81,62,30.19,29.89,29.56,10,6,1,31,21,40,0.05,8,Rain-Snow,284
2013-2-20,25,17,8,13,8,2,73,66,59,30.37,30.31,30.16,10,10,5,15,9,24,T,3,Snow,325
2013-2-21,29,22,15,23,19,11,88,76,63,30.37,30.18,29.98,10,7,0,26,11,33,0.10,8,Rain-Snow,92
2013-2-22,35,31,26,32,28,21,100,88,75,30.00,29.90,29.84,10,5,2,23,11,31,0.10,8,Rain-Snow,173
2013-2-23,30,27,24,21,20,18,81,75,68,30.01,30.00,29.97,10,10,10,14,9,17,0.00,7,,276
2013-2-24,38,27,16,24,20,15,92,73,54,30.17,30.11,30.00,10,9,4,10,3,15,0.00,0,,296
2013-2-25,43,32,21,28,24,20,96,73,49,30.18,30.08,29.91,10,10,7,20,9,23,0.00,0,,89
2013-2-26,35,33,31,34,30,24,100,85,69,29.89,29.55,29.41,10,4,1,31,14,43,1.32,7,Rain,74
2013-2-27,42,37,31,32,30,27,100,93,85,29.70,29.60,29.49,8,4,0,17,9,22,0.02,8,Fog-Snow,262
2013-2-28,37,34,31,32,29,26,92,84,76,30.03,29.88,29.68,10,9,2,20,12,28,T,8,Snow,331